SCP
0 0 0 0 0 0 0 0 0 0 0 0 0 0 0 0 0 0 0 0 0 0 0 0 0 0 0 0 0 0 0 0 0 0 0 0 0 1 1 0 0 0 0 0 0 0 0 0 0
0 0 0 0 0 0 0 0 0 0 0 0 0 0 0 0 0 0 0 0 0 0 0 0 0 0 0 0 0 0 0 0 0 0 0 0 0 0 0 0 0 0 0 0 0 0 0 0 0
0 0 0 0 0 0 0 0 0 0 0 0 0 0 0 0 0 0 0 0 0 0 0 0 0 0 0 0 0 0 0 0 0 0 0 0 0 0 0 0 0 0 0 0 0 0 0 0 0
0 0 0 0 0 0 0 0 0 0 0 0 0 0 0 0 0 0 0 0 0 0 0 0 0 0 0 0 0 0 0 0 0 0 0 0 0 0 0 0 0 0 0 0 0 0 0 0 0
0 0 0 0 0 0 0 0 0 0 0 0 0 0 0 0 0 0 0 0 0 0 0 0 0 0 0 0 0 0 0 0 0 0 0 0 0 0 0 0 0 0 0 0 0 0 0 0 0
0 0 0 0 0 0 0 0 0 0 0 0 0 0 0 0 0 0 0 0 0 0 0 0 0 0 0 0 0 0 0 0 0 0 0 0 0 0 0 0 0 0 0 0 0 0 0 0 0
0 0 0 0 0 0 0 0 0 0 0 0 0 0 0 0 0 0 0 0 0 0 0 0 0 0 0 0 0 0 0 0 0 0 0 0 0 0 0 0 0 0 0 0 0 0 0 0 0
0 0 0 0 0 0 0 0 0 0 0 0 0 0 0 0 0 0 0 0 0 0 0 0 0 0 0 0 0 0 0 0 0 0 0 0 0 0 0 0 0 0 0 0 0 0 0 0 -0
0 0 0 0 0 0 0 0 0 0 0 0 0 0 0 0 0 0 0 0 0 0 0 0 0 0 0 0 0 0 0 0 0 0 0 0 0 0 0 0 0 0 0 0 0 0 0 -0 -0
0 0 0 0 0 0 0 0 0 0 0 0 0 0 0 0 0 0 0 0 0 0 0 0 0 0 0 0 0 0 0 0 0 0 0 0 0 0 0 1 1 1 0 0 0 0 0 0 0
0 0 0 0 0 0 0 0 0 0 0 0 0 0 0 0 0 0 0 0 0 0 0 0 0 0 0 0 0 0 0 0 0 0 0 0 0 0 1 1 1 1 0 0 0 0 0 0 0
0 0 0 0 0 0 0 0 0 0 0 0 0 0 0 0 0 0 0 0 0 0 0 0 1 1 1 1 1 0 0 0 0 0 1 0 0 1 1 1 1 1 0 0 0 0 0 0 0
0 0 0 0 0 0 0 0 0 0 0 0 0 0 0 0 0 0 0 0 1 1 1 1 1 1 1 1 1 1 1 1 1 1 1 1 1 1 1 1 1 1 1 1 0 0 0 0 0
0 0 0 0 0 0 0 0 0 0 0 0 0 0 0 0 0 0 0 1 1 1 1 1 2 2 2 2 2 1 1 1 2 2 2 1 1 2 2 2 1 1 1 1 1 1 1 1 1
0 0 0 0 0 0 0 0 0 0 0 0 0 0 0 0 0 0 0 1 1 2 2 2 3 3 3 3 3 2 2 2 2 2 2 2 2 2 2 2 2 2 2 2 2 1 1 1 1
0 0 0 0 0 0 0 0 0 0 0 0 0 0 0 0 0 0 1 1 2 3 3 3 3 3 4 4 3 3 3 3 3 3 3 3 3 3 3 3 3 2 2 2 2 2 1 1 1
0 0 0 0 0 0 0 0 0 0 0 0 0 0 0 0 0 0 1 2 3 4 5 5 4 5 5 5 4 4 4 4 4 4 4 4 3 3 3 3 3 2 2 2 1 1 1 1 1
0 0 0 0 0 0 0 0 0 0 0 0 0 0 0 0 0 0 1 2 3 5 6 6 6 7 6 6 5 5 4 4 4 4 3 3 3 3 3 3 2 2 1 1 1 1 1 1 0
0 0 0 0 0 0 0 0 0 0 0 0 0 0 0 0 0 1 1 2 4 6 8 8 8 8 8 7 6 6 5 4 3 3 3 2 2 2 2 2 1 1 1 1 0 0 0 0 0
0 0 0 0 0 0 0 0 0 0 0 0 0 0 0 0 1 1 1 2 4 7 9 9 10 10 9 8 7 6 5 4 3 2 2 1 1 1 1 1 1 1 0 0 0 0 0 0 0
0 0 0 0 0 0 0 0 0 0 0 0 0 0 1 1 2 2 2 3 4 6 9 10 11 11 10 9 7 5 4 3 2 1 1 1 1 1 0 0 0 0 0 0 0 0 0 0 0
0 0 0 0 0 0 0 0 0 0 0 0 1 1 2 3 3 4 4 5 6 7 9 11 12 12 10 8 6 5 3 2 2 1 0 0 0 0 0 0 0 0 0 0 0 0 0 0 0
0 0 0 0 0 0 0 0 0 0 0 1 2 3 4 4 4 5 6 7 8 9 10 12 13 12 10 7 6 4 3 2 1 1 0 0 0 0 0 0 0 0 0 0 0 0 0 0 0
0 0 0 0 0 0 0 0 0 0 1 2 4 5 5 5 5 5 7 8 9 10 11 12 11 10 7 6 4 3 2 1 1 0 0 0 0 0 0 0 0 0 0 0 0 0 0 0 0
0 0 0 0 0 -0 0 0 1 2 3 4 5 6 5 4 4 4 5 6 7 8 9 9 8 6 5 4 3 2 1 1 0 0 0 0 0 0 0 0 0 0 0 0 0 0 0 0 0
0 0 0 0 0 0 0 0 1 3 4 5 5 4 4 3 3 3 3 4 4 5 5 5 4 3 2 2 1 1 1 0 0 0 0 0 0 0 0 0 0 0 0 0 0 0 0 0 0
0 0 0 0 0 0 0 1 2 3 4 4 3 3 2 2 1 1 1 1 2 2 2 2 1 1 1 1 0 0 0 0 0 0 0 0 0 0 0 0 0 0 0 0 0 0 0 0 0
0 0 0 0 0 0 0 1 1 2 3 3 2 2 1 1 1 0 0 0 0 0 0 0 0 0 0 0 0 0 0 0 0 0 0 0 0 0 0 0 0 0 0 0 0 0 0 0 0
0 0 0 0 0 0 0 1 1 2 2 2 2 1 1 0 0 0 0 0 0 0 0 0 0 0 0 0 0 0 0 0 0 0 0 0 0 0 0 0 0 0 0 0 0 0 0 0 0
0 0 0 0 0 0 0 1 1 2 2 2 1 1 0 0 0 0 0 0 0 0 0 0 0 0 0 0 0 0 0 0 0 0 0 0 0 0 0 0 0 0 0 0 0 0 0 0 0
Wind_Speed
12 14 13 10 9 10 15 7 3 7 12 9 10 8 9 15 12 9 8 14 23 21 19 18 16 14 13 13 13 13 13 12 11 11 11 11 11 11 12 12 11 11 11 11 10 9 8 7 6
12 15 11 8 11 12 12 6 5 9 8 4 6 5 9 15 12 12 11 16 23 21 17 16 16 15 14 13 13 13 13 13 12 11 11 11 11 11 11 11 11 11 10 10 9 8 7 6 5
12 15 9 9 14 14 12 9 6 6 4 3 4 7 10 9 10 10 13 16 21 19 17 17 16 15 14 14 13 13 13 13 13 12 12 11 11 11 10 11 11 10 10 9 8 7 6 5 4
8 8 8 11 18 18 14 11 4 2 1 2 2 7 13 8 8 14 16 17 19 19 18 17 16 16 15 14 14 13 13 13 13 12 12 11 11 10 10 10 10 9 9 8 7 6 5 4 3
10 9 13 16 21 21 17 13 6 5 1 1 2 10 13 13 17 17 15 16 18 19 18 17 16 15 15 14 14 13 13 13 13 12 12 11 10 9 9 9 9 8 8 7 6 5 4 3 3
10 11 15 16 20 20 18 15 9 8 5 1 1 10 13 15 17 15 15 14 17 19 19 16 16 16 15 14 13 12 12 12 12 12 11 10 9 9 8 8 8 7 7 6 6 4 3 2 2
13 14 18 20 20 19 17 13 9 8 7 4 5 8 13 16 15 15 14 13 17 19 18 15 15 14 14 13 13 12 11 11 11 11 10 10 9 8 8 7 7 7 7 6 5 3 1 1 3
14 15 21 21 21 20 18 15 9 10 7 6 6 3 15 16 14 14 14 13 16 18 18 15 15 14 12 12 13 12 11 11 11 11 10 10 9 8 8 8 8 8 8 7 6 4 4 5 5
18 16 18 20 19 17 18 15 11 10 7 5 2 3 18 18 16 14 13 12 14 16 17 15 15 14 13 13 13 12 11 10 11 10 10 9 7 8 8 9 11 9 8 7 7 6 7 7 8
16 15 20 20 20 18 15 13 11 11 10 7 6 11 20 18 17 16 15 15 15 16 17 15 16 15 14 12 12 9 9 9 8 8 9 7 6 5 7 12 12 11 9 9 9 9 9 8 5
18 19 17 19 20 17 14 10 11 11 10 12 15 18 22 20 17 16 16 15 16 15 14 17 15 14 13 10 11 8 7 8 9 9 9 6 5 4 5 5 7 7 9 7 7 8 7 6 4
19 17 18 18 17 13 14 11 10 10 10 10 13 17 21 20 18 16 16 16 16 16 15 16 16 13 11 11 10 8 6 7 7 7 9 5 2 2 4 4 5 5 4 4 5 5 5 2 1
19 18 17 16 15 11 12 13 11 11 10 7 7 10 15 17 17 15 13 15 17 16 14 14 14 11 7 6 7 7 5 7 7 7 6 5 4 3 3 2 2 3 2 3 3 3 2 1 1
17 17 18 16 14 13 13 14 15 15 13 10 10 10 15 17 17 15 13 13 15 15 13 11 12 12 8 6 4 5 5 5 6 6 8 7 4 3 3 2 1 1 1 1 1 0 2 1 2
17 16 16 16 16 15 15 18 19 17 16 14 14 14 16 16 14 12 13 12 14 14 12 10 11 12 10 9 6 5 4 6 5 6 7 7 6 5 4 3 2 1 1 1 1 2 2 2 2
15 16 16 16 18 17 17 18 17 18 16 14 14 13 13 12 14 14 15 13 13 15 13 12 13 13 10 8 7 5 5 6 6 6 6 7 7 7 5 3 2 2 2 2 2 2 2 3 3
16 16 17 17 19 18 19 18 18 15 15 12 12 12 12 11 13 16 16 14 13 14 14 12 11 13 13 10 7 6 5 5 5 5 5 6 7 7 5 4 3 3 2 2 2 4 3 3 3
14 16 18 18 18 21 20 18 17 11 13 13 12 11 11 9 10 9 12 16 14 14 14 12 10 11 12 9 7 5 6 6 5 5 6 8 6 7 6 5 5 4 4 4 4 4 4 3 2
19 16 17 17 17 19 18 17 16 10 10 11 11 10 10 9 6 4 5 11 14 14 14 13 12 11 10 9 9 8 7 7 6 5 7 7 7 7 6 5 5 5 5 5 5 3 2 2 1
20 20 18 14 16 16 16 17 16 13 12 9 7 5 3 2 3 4 2 5 11 14 14 13 12 12 10 8 6 6 8 6 6 5 5 5 6 6 6 6 5 5 5 5 5 3 1 2 2
17 17 17 13 12 11 9 14 16 16 12 9 7 3 3 4 4 4 3 1 5 11 14 13 13 13 11 10 8 8 7 5 4 5 4 6 7 6 6 6 5 5 4 4 4 3 3 3 2
13 15 16 16 11 9 12 12 16 17 15 12 9 5 6 8 8 9 8 6 2 5 11 12 13 12 12 12 12 13 9 7 6 5 5 7 6 6 6 6 6 5 4 4 4 3 2 3 2
13 13 15 16 14 12 11 14 14 17 19 15 8 7 11 12 13 13 13 12 10 6 6 11 12 12 12 11 12 11 8 6 7 7 9 8 7 7 7 7 7 6 5 6 6 4 3 2 1
12 14 15 14 13 16 15 14 14 10 13 10 11 14 14 14 14 14 14 14 13 12 10 10 12 10 10 10 9 8 10 10 11 10 9 7 6 6 8 8 7 7 6 6 5 4 5 4 4
12 12 9 11 12 15 15 16 11 3 14 16 18 16 15 15 14 14 14 14 14 14 13 12 12 11 10 9 8 8 10 11 11 10 9 8 7 6 7 7 6 6 6 5 4 5 4 4 4
13 15 12 10 12 13 19 19 8 13 18 19 18 16 15 14 13 13 12 12 12 13 13 13 13 12 11 10 9 9 9 8 8 9 8 8 7 7 7 7 6 6 5 5 4 4 3 3 2
13 14 15 15 18 15 12 11 12 16 18 17 17 16 15 13 13 12 12 12 12 12 12 13 13 13 12 12 12 12 11 11 11 10 9 8 8 8 7 7 6 6 6 4 2 3 3 3 3
15 12 9 12 13 15 13 7 11 17 16 16 15 15 13 13 12 12 11 11 11 11 12 13 13 13 13 12 11 11 12 11 10 10 10 9 8 7 7 7 6 5 4 3 3 3 3 3 3
14 15 13 10 12 14 13 2 5 14 16 15 14 13 13 12 11 10 10 10 10 11 12 13 13 14 13 13 12 12 11 11 11 10 10 9 8 7 7 6 5 5 4 4 4 3 3 4 4
12 14 13 10 11 12 12 2 11 16 16 16 15 13 13 12 11 11 10 10 11 12 12 12 12 13 13 12 12 12 11 11 11 10 9 8 7 7 6 6 5 5 5 4 4 4 5 5 5
Wind_Direction
275 270 271 278 265 250 263 272 115 61 64 47 50 32 38 52 55 94 126 122 116 123 129 128 122 121 126 134 138 139 139 138 134 130 124 117 111 106 104 103 102 102 102 101 99 95 90 84 80
282 284 284 266 266 270 288 297 69 58 78 84 85 61 60 68 73 104 124 119 120 126 135 133 126 124 125 130 135 139 141 141 138 132 128 122 117 113 110 108 106 105 105 104 102 98 92 85 77
273 274 277 271 263 268 282 312 47 51 77 76 73 70 58 66 87 111 122 130 125 131 134 129 132 127 125 128 132 138 141 141 139 135 131 127 123 119 116 114 112 111 110 108 105 101 95 86 74
256 251 246 259 267 268 270 282 329 351 32 91 89 85 83 69 98 118 134 142 132 134 131 136 135 131 128 129 132 137 140 140 139 138 134 132 129 125 122 119 117 115 113 110 106 100 91 78 55
240 257 257 259 264 271 275 279 285 280 214 184 122 102 95 90 100 120 147 144 136 135 132 140 138 135 134 133 134 136 139 140 140 139 138 136 133 129 126 124 121 119 116 112 107 100 86 60 23
235 241 250 255 260 264 265 263 261 259 248 197 183 113 108 115 119 140 145 147 138 131 133 139 141 141 140 140 139 139 138 138 138 138 139 138 136 133 131 129 126 123 119 116 114 108 89 41 348
239 246 251 256 262 268 273 271 259 245 227 186 230 134 126 128 134 145 143 152 137 134 134 146 148 147 146 145 144 142 139 137 137 138 140 142 142 142 141 137 134 131 129 129 130 132 142 261 285
237 248 254 258 264 270 276 272 253 248 234 177 234 165 131 132 145 145 150 152 140 136 139 151 154 155 156 156 153 148 143 141 141 144 149 151 153 158 157 154 145 142 144 145 151 169 207 235 250
232 242 247 251 258 263 264 262 247 227 223 178 233 102 130 143 152 153 154 154 145 141 143 154 159 160 166 164 157 155 152 148 150 156 162 167 182 180 180 174 149 152 154 159 172 198 220 235 242
227 234 241 250 261 270 266 255 239 216 199 186 164 131 137 154 160 164 161 163 154 151 152 160 163 165 173 165 152 166 170 164 181 176 174 195 210 192 178 147 153 160 166 176 195 214 229 236 233
227 235 250 252 258 272 278 249 239 225 208 194 184 162 152 160 167 173 167 168 160 159 165 162 165 168 173 156 156 173 179 165 194 186 175 199 204 172 132 143 156 170 182 194 197 218 234 226 218
232 235 246 260 268 262 273 271 247 233 229 207 200 165 157 165 172 179 172 169 163 165 176 165 164 167 173 161 163 171 173 161 181 173 175 184 174 153 146 165 180 182 195 199 191 223 223 233 282
232 241 249 254 269 263 256 266 272 262 245 226 218 174 164 174 179 180 176 169 166 168 177 168 164 158 164 147 157 164 161 161 163 153 163 155 161 153 147 156 175 201 183 175 231 237 147 95 315
241 234 245 250 251 253 252 257 259 257 250 227 208 196 190 189 186 180 177 172 170 166 172 169 156 150 151 143 145 145 149 133 140 141 155 158 143 132 127 138 173 248 103 134 243 78 94 69 35
255 253 239 238 240 239 244 249 247 246 240 221 209 197 201 192 181 181 179 177 170 162 163 158 154 152 155 158 163 152 146 138 130 128 137 140 138 131 133 143 152 150 95 90 37 55 79 95 74
245 246 246 233 227 232 237 246 242 229 229 220 209 201 204 189 179 189 190 174 172 161 157 161 169 160 159 161 160 158 154 135 127 125 130 136 129 132 135 137 142 136 111 94 77 50 63 56 55
241 234 237 237 215 219 226 242 251 217 210 213 204 198 202 197 195 187 180 168 168 156 155 162 165 161 163 160 153 150 128 114 118 119 118 118 123 127 127 124 121 116 88 69 77 55 54 58 47
229 228 233 237 213 210 221 234 249 222 203 204 207 199 187 205 205 193 171 165 162 154 154 159 160 156 154 154 146 143 129 115 105 104 112 116 120 128 126 124 121 111 96 77 67 68 58 55 38
258 256 243 232 217 204 219 233 240 220 208 211 201 201 188 194 185 154 152 155 155 151 155 161 165 156 154 160 162 158 144 129 120 120 126 130 134 133 127 120 115 116 119 122 115 100 105 94 43
256 270 268 240 216 202 212 231 240 237 210 214 218 192 157 151 112 97 120 145 158 156 158 160 162 160 162 159 154 143 131 130 126 117 109 109 112 111 116 122 125 124 127 130 127 132 123 93 63
244 257 268 260 214 189 219 238 246 247 231 200 202 204 121 80 44 36 25 98 159 161 164 169 167 162 161 147 132 125 118 119 119 117 108 100 105 111 119 127 127 130 127 128 130 139 139 138 122
246 253 269 280 256 203 200 235 237 242 238 218 202 178 84 55 38 30 20 24 31 165 166 160 158 154 149 144 147 150 154 153 139 124 110 106 105 112 113 114 116 116 105 107 107 85 94 112 130
249 254 254 267 277 267 229 232 241 229 229 220 181 106 77 60 46 35 27 21 21 34 132 145 143 142 146 148 150 151 148 129 118 113 110 99 90 91 98 101 100 96 94 93 89 89 77 85 76
242 250 246 241 253 249 246 251 249 246 235 194 118 88 73 62 55 43 33 30 32 40 61 99 117 121 128 133 140 141 133 127 124 120 116 106 97 91 94 96 97 97 95 92 93 90 73 61 47
228 235 228 217 229 242 234 239 242 69 65 93 99 87 75 67 58 49 40 37 38 44 58 74 92 96 100 106 112 116 119 122 121 118 114 113 110 105 102 101 100 98 98 97 93 82 74 59 40
218 234 240 233 226 233 224 225 205 114 97 95 95 92 82 72 65 57 49 46 47 51 59 70 78 82 86 91 93 98 104 105 108 111 115 114 111 108 107 103 99 100 100 94 85 93 90 74 18
224 228 250 268 282 283 260 195 126 119 112 109 105 98 88 79 71 63 56 53 54 59 63 71 78 79 80 83 85 85 88 95 101 103 102 103 107 114 111 106 100 91 84 82 67 75 57 53 15
240 238 235 250 267 275 277 199 163 151 133 119 110 103 97 88 78 70 64 63 63 66 69 70 76 79 78 79 83 90 93 99 103 103 104 108 108 107 108 101 96 94 90 77 52 71 59 29 21
217 237 250 254 254 262 270 325 56 141 130 120 111 106 100 92 84 77 74 71 71 72 73 74 74 77 78 80 84 88 91 93 94 95 98 99 100 102 104 104 102 98 86 64 41 34 34 22 17
232 227 239 250 260 268 275 64 88 111 116 116 111 104 98 92 87 83 81 79 76 75 77 78 79 81 81 83 85 86 86 89 92 93 93 95 97 96 95 91 86 84 75 54 35 22 30 21 11